Cecil Field, FL

12:01 AM EDT on April 30, 2017 (GMT -0400)
Cecil

Weather History for KVQQ - October, 2013

Change the Weather History Date:

Sunday, October 13, 2013

  Actual Average (KNIP) Record (KNIP)
Temperature  
Mean Temperature 70 °F -  
Max Temperature 84 °F 78 °F 90 °F (2014)
Min Temperature 55 °F 64 °F 60 °F (2000)
Cooling Degree Days 4    
Growing Degree Days 20 (Base 50)    
Moisture  
Dew Point -    
Average Humidity    
Maximum Humidity    
Minimum Humidity    
Precipitation  
Precipitation 0.00 in - - ()
Sea Level Pressure  
Sea Level Pressure 30.07 in    
Wind  
Wind Speed 1 mph (NNE)    
Max Wind Speed 12 mph    
Max Gust Speed -    
Visibility 7 miles    
Events      
Averages and records for this station are not official NWS values.
T = Trace of Precipitation, MM = Missing Value Source: NWS Daily Summary

Daily Weather History Graph

Daily Weather History Graph

Search for Another Location

Airport or City:

Trip Planner

Search our weather history database for the weather conditions in past years. The results will help you decide how hot, cold, wet, or windy it might be!

Date:

Astronomy

Oct. 13, 2013 Rise Set
Actual Time 7:28 AM EDT 6:58 PM EDT
Civil Twilight 7:04 AM EDT 7:22 PM EDT
Nautical Twilight 6:36 AM EDT 7:50 PM EDT
Astronomical Twilight 6:08 AM EDT 8:18 PM EDT
Moon 3:28 PM EDT (10/13) 1:59 AM EDT (10/13)
Length of Visible Light 12h 18m
Length of Day
11h 30m
Waxing Gibbous, 69% of the Moon is Illuminated
Oct 13
Waxing Gibbous
Oct 18
Full
Oct 26
Last Quarter
Nov 3
New
Nov 10
First Quarter

Hourly Weather History & Observations

Time (EDT) Temp. Dew Point Humidity Pressure Visibility Wind Dir Wind Speed Gust Speed Precip Events Conditions
12:15 AM 59.0 °F - N/A% 30.06 in 5.0 mi Calm Calm - N/A   Haze
12:35 AM 59.0 °F - N/A% 30.06 in 5.0 mi Calm Calm - N/A   Haze
12:55 AM 59.0 °F - N/A% 30.06 in 8.0 mi Calm Calm - N/A   Clear
1:15 AM 59.0 °F - N/A% 30.06 in 7.0 mi Calm Calm - N/A   Clear
1:35 AM 57.2 °F - N/A% 30.06 in 7.0 mi Calm Calm - N/A   Clear
1:55 AM 57.2 °F - N/A% 30.05 in 7.0 mi Calm Calm - N/A   Clear
2:15 AM 57.2 °F - N/A% 30.04 in 3.0 mi Calm Calm - N/A   Clear
2:35 AM 57.2 °F - N/A% 30.04 in 1.8 mi Calm Calm - N/A   Clear
2:55 AM 57.2 °F - N/A% 30.04 in 7.0 mi Calm Calm - N/A   Clear
3:15 AM 57.2 °F - N/A% 30.04 in 3.0 mi Calm Calm - N/A   Clear
3:35 AM 57.2 °F - N/A% 30.04 in 3.0 mi Calm Calm - N/A   Clear
3:55 AM 55.4 °F - N/A% 30.03 in 5.0 mi Calm Calm - N/A   Haze
4:15 AM 55.4 °F - N/A% 30.03 in 5.0 mi Calm Calm - N/A   Haze
4:35 AM 55.4 °F - N/A% 30.03 in 3.0 mi Calm Calm - N/A   Clear
4:55 AM 55.4 °F - N/A% 30.04 in 4.0 mi Calm Calm - N/A   Haze
5:15 AM 55.4 °F - N/A% 30.04 in 1.8 mi Calm Calm - N/A   Clear
5:35 AM 55.4 °F - N/A% 30.04 in 3.0 mi Calm Calm - N/A   Clear
5:55 AM 55.4 °F - N/A% 30.05 in 3.0 mi Calm Calm - N/A   Clear
6:15 AM 55.4 °F - N/A% 30.06 in 3.0 mi Calm Calm - N/A   Clear
6:35 AM 57.2 °F - N/A% 30.06 in 7.0 mi Calm Calm - N/A   Clear
6:50 AM 57.2 °F - N/A% 30.06 in 7.0 mi Calm Calm - N/A   Clear
7:50 AM 55.4 °F - N/A% 30.07 in 7.0 mi Calm Calm - N/A   Clear
8:50 AM 64.4 °F - N/A% 30.08 in 7.0 mi Calm Calm - N/A   Clear
9:50 AM 71.6 °F - N/A% 30.11 in 7.0 mi Calm Calm - N/A   Clear
10:50 AM 75.2 °F - N/A% 30.11 in 10.0 mi NNW 6.9 mph - N/A   Clear
11:50 AM 82.4 °F - N/A% 30.11 in 10.0 mi NW 6.9 mph - N/A   Clear
12:50 PM 84.2 °F - N/A% 30.09 in 10.0 mi North 8.1 mph - N/A   Clear
1:50 PM 84.2 °F - N/A% 30.07 in 10.0 mi North 8.1 mph - N/A   Scattered Clouds
2:50 PM 84.2 °F - N/A% 30.05 in 10.0 mi North 8.1 mph - N/A   Scattered Clouds
3:50 PM 84.2 °F - N/A% 30.03 in 10.0 mi NNE 11.5 mph - N/A   Scattered Clouds
4:50 PM 84.2 °F - N/A% 30.03 in 10.0 mi NNE 11.5 mph - N/A   Scattered Clouds
5:50 PM 77.0 °F - N/A% 30.04 in 10.0 mi NE 6.9 mph - N/A   Scattered Clouds
6:50 PM 75.2 °F - N/A% 30.06 in 10.0 mi NE 6.9 mph - N/A   Scattered Clouds
7:50 PM 71.6 °F - N/A% 30.08 in 10.0 mi NE 4.6 mph - N/A   Clear
8:15 PM 71.6 °F - N/A% 30.09 in 10.0 mi NE 3.5 mph - N/A   Clear
8:35 PM 71.6 °F - N/A% 30.09 in 10.0 mi Calm Calm - N/A   Clear
8:55 PM 69.8 °F - N/A% 30.10 in 10.0 mi Calm Calm - N/A   Scattered Clouds
9:15 PM 68.0 °F - N/A% 30.10 in 10.0 mi Calm Calm - N/A   Mostly Cloudy
9:35 PM 68.0 °F - N/A% 30.10 in 10.0 mi Calm Calm - N/A   Partly Cloudy
9:55 PM 66.2 °F - N/A% 30.10 in 10.0 mi Calm Calm - N/A   Partly Cloudy
10:15 PM 66.2 °F - N/A% 30.10 in 10.0 mi Calm Calm - N/A   Partly Cloudy
10:35 PM 64.4 °F - N/A% 30.10 in 7.0 mi Calm Calm - N/A   Clear
10:55 PM 64.4 °F - N/A% 30.10 in 8.0 mi Calm Calm - N/A   Scattered Clouds
11:15 PM 64.4 °F - N/A% 30.10 in 5.0 mi Calm Calm - N/A   Haze
11:35 PM 62.6 °F - N/A% 30.10 in 5.0 mi Calm Calm - N/A   Haze
11:55 PM 62.6 °F - N/A% 30.09 in 5.0 mi Calm Calm - N/A   Haze